EW7239 Weather Reports


time (UTC)temp
C
wind
direction
speed
KPH
gust
KPH
rain 1hr
cm
rain 24hr
cm
rain mn
cm
humidity
%
barometer
mb
20260503174851 15 224 9.7 16.1 0.00 0.00 0.00 85 1014.8
20260503174352 15 225 9.7 16.1 0.00 0.00 0.00 84 1014.7
20260503173852 15 211 8.0 14.5 0.00 0.00 0.00 84 1014.7
20260503173351 15 213 8.0 14.5 0.00 0.00 0.00 84 1014.7
20260503172851 15 215 8.0 14.5 0.00 0.00 0.00 83 1014.7
20260503172351 15 226 6.4 11.3 0.00 0.00 0.00 82 1014.6
20260503171853 15 232 6.4 9.7 0.00 0.00 0.00 81 1014.6
20260503171624 15 233 6.4 9.7 0.00 0.00 0.00 81 1014.5
20260503170852 15 234 6.4 9.7 0.00 0.00 0.00 80 1014.5
20260503170349 15 234 6.4 11.3 0.00 0.00 0.00 80 1014.5
20260503170120 15 235 4.8 11.3 0.00 0.00 0.00 80 1014.5
20260503150839 14 257 3.2 6.4 0.00 0.00 0.00 81 1014.1
20260503150341 14 257 4.8 6.4 0.00 0.00 0.00 81 1014.1
20260503131319 14 257 3.2 6.4 0.00 0.00 0.00 86 1013.4
20260503130816 14 257 3.2 6.4 0.00 0.00 0.00 86 1013.4
20260503130316 14 257 3.2 6.4 0.00 0.00 0.00 86 1013.4
20260503110758 14 257 4.8 11.3 0.00 0.00 0.00 86 1012.8
20260503110257 14 257 4.8 11.3 0.00 0.00 0.00 86 1012.7
20260503100250 14 257 6.4 11.3 0.00 0.00 0.00 85 1013.1
20260503090238 14 238 3.2 11.3 0.00 0.00 0.00 85 1013.2
20260503081227 14 238 1.6 6.4 0.00 0.00 0.00 83 1013.4
20260503080727 15 238 3.2 6.4 0.00 0.00 0.00 83 1013.4
20260503080225 15 238 3.2 8.0 0.00 0.00 0.00 83 1013.4
20260503072723 15 238 3.2 6.4 0.00 0.00 0.00 82 1013.2
20260503072222 15 238 3.2 8.0 0.00 0.00 0.00 82 1013.2
20260503071719 15 238 3.2 8.0 0.00 0.00 0.00 81 1013.1
20260503071221 15 238 3.2 6.4 0.00 0.00 0.00 81 1013.0
20260503070715 15 238 4.8 8.0 0.00 0.00 0.00 81 1013.1
20260503070212 15 238 4.8 9.7 0.00 0.00 0.00 80 1013.0
20260503060158 16 239 3.2 8.0 0.00 0.00 0.00 77 1012.9
20260503054655 16 238 4.8 12.9 0.00 0.00 0.00 77 1013.0
20260503054422 16 239 6.4 12.9 0.00 0.00 0.00 77 1013.1
20260503053650 16 232 6.4 12.9 0.00 0.00 0.00 77 1013.1
20260503053151 16 227 8.0 12.9 0.00 0.00 0.00 77 1013.1
20260503052920 16 231 8.0 12.9 0.00 0.00 0.00 76 1013.1
20260503052151 16 236 6.4 12.9 0.00 0.00 0.00 76 1013.1
20260503051650 16 235 8.0 12.9 0.00 0.00 0.00 76 1012.9
20260503051151 16 227 6.4 12.9 0.00 0.00 0.00 76 1012.9
20260503050650 16 228 6.4 12.9 0.00 0.00 0.00 76 1012.9
20260503050151 16 228 8.0 12.9 0.00 0.00 0.00 76 1012.9
20260503045645 17 228 6.4 11.3 0.00 0.00 0.00 75 1012.8
20260503045142 17 229 6.4 12.9 0.00 0.00 0.00 75 1012.7
20260503044641 17 228 6.4 12.9 0.00 0.00 0.00 75 1012.8
20260503044411 17 229 6.4 12.9 0.00 0.00 0.00 75 1012.7
20260503043640 17 230 8.0 14.5 0.00 0.00 0.00 75 1012.7
20260503043141 17 233 6.4 14.5 0.00 0.00 0.00 74 1012.6
20260503042638 17 229 6.4 9.7 0.00 0.00 0.00 74 1012.5
20260503042138 17 227 8.0 14.5 0.00 0.00 0.00 74 1012.3
20260503041638 17 227 8.0 14.5 0.00 0.00 0.00 73 1012.2
20260503041139 17 227 8.0 14.5 0.00 0.00 0.00 73 1012.1
20260503040632 17 225 9.7 16.1 0.00 0.00 0.00 73 1012.0
20260503040133 17 225 8.0 16.1 0.00 0.00 0.00 72 1012.0
20260503035633 18 227 8.0 12.9 0.00 0.00 0.00 72 1011.9
20260503035132 18 223 6.4 12.9 0.00 0.00 0.00 71 1011.8
20260503034633 18 225 6.4 11.3 0.00 0.00 0.00 71 1011.7
20260503034405 18 225 6.4 16.1 0.00 0.00 0.00 70 1011.6
20260503033631 18 225 6.4 16.1 0.00 0.00 0.00 70 1011.5
20260503033129 18 232 4.8 11.3 0.00 0.00 0.00 69 1011.4
20260503032626 19 224 8.0 14.5 0.00 0.00 0.00 69 1011.3
20260503032126 19 223 8.0 14.5 0.00 0.00 0.00 68 1011.2
20260503031625 19 222 6.4 17.7 0.00 0.00 0.00 68 1011.2
20260503031124 19 222 8.0 17.7 0.00 0.00 0.00 67 1011.1
20260503030624 20 223 9.7 17.7 0.00 0.00 0.00 67 1011.0
20260503030120 20 229 9.7 17.7 0.00 0.00 0.00 66 1010.9
20260503025621 20 232 8.0 16.1 0.00 0.00 0.00 65 1010.8
20260503025120 20 239 8.0 16.1 0.00 0.00 0.00 65 1010.6
20260503024622 20 221 9.7 16.1 0.00 0.00 0.00 64 1010.5
20260503024121 21 223 9.7 17.7 0.00 0.00 0.00 64 1010.4
20260503023618 21 236 9.7 17.7 0.00 0.00 0.00 63 1010.3
20260503023118 21 223 9.7 17.7 0.00 0.00 0.00 63 1010.1
20260503022619 21 221 9.7 17.7 0.00 0.00 0.00 62 1010.1
20260503022117 22 221 8.0 14.5 0.00 0.00 0.00 61 1010.0
20260503021617 22 221 8.0 12.9 0.00 0.00 0.00 60 1010.1
20260503021116 22 221 8.0 12.9 0.00 0.00 0.00 59 1010.0
20260503020616 22 221 8.0 14.5 0.00 0.00 0.00 59 1010.0
20260503020116 23 223 9.7 16.1 0.00 0.00 0.00 58 1010.1
20260503015617 23 222 8.0 16.1 0.00 0.00 0.00 58 1010.1
20260503015345 23 220 8.0 16.1 0.00 0.00 0.00 57 1010.0
20260503014614 23 232 8.0 16.1 0.00 0.00 0.00 57 1009.9
20260503014114 23 224 8.0 16.1 0.00 0.00 0.00 57 1009.9
20260503013615 23 227 9.7 20.9 0.00 0.00 0.00 57 1009.9
20260503013346 23 223 11.3 20.9 0.00 0.00 0.00 58 1010.0
20260503012613 23 225 11.3 20.9 0.00 0.00 0.00 57 1010.0
20260503012110 23 219 11.3 19.3 0.00 0.00 0.00 56 1010.0
20260503011611 23 224 12.9 22.5 0.00 0.00 0.00 56 1010.0
20260503011108 24 219 12.9 22.5 0.00 0.00 0.00 56 1009.9
20260503010609 24 229 12.9 20.9 0.00 0.00 0.00 55 1010.0
20260503010109 24 236 12.9 20.9 0.00 0.00 0.00 55 1009.9
20260503005605 24 223 12.9 25.7 0.00 0.00 0.00 55 1009.9
20260503005105 25 218 12.9 25.7 0.00 0.00 0.00 54 1009.9
20260503004606 25 219 14.5 24.1 0.00 0.00 0.00 54 1009.9
20260503004104 25 221 14.5 24.1 0.00 0.00 0.00 53 1009.9
20260503003102 26 203 12.9 24.1 0.00 0.00 0.00 53 1009.9
20260503002603 26 219 12.9 24.1 0.00 0.00 0.00 52 1010.0
20260503002103 26 223 12.9 22.5 0.00 0.00 0.00 51 1009.9
20260503001603 26 224 11.3 19.3 0.00 0.00 0.00 51 1009.8
20260503001102 26 213 12.9 19.3 0.00 0.00 0.00 52 1009.9
20260503000604 26 219 12.9 19.3 0.00 0.00 0.00 51 1009.8
20260503000104 26 230 11.3 19.3 0.00 0.00 0.00 50 1009.8
20260502235603 27 227 11.3 20.9 0.00 0.00 0.00 49 1009.8
20260502235104 27 218 11.3 20.9 0.00 0.00 0.00 47 1009.7
20260502234833 27 243 9.7 19.3 0.00 0.00 0.00 47 1009.7
20260502234336 27 221 11.3 22.5 0.00 0.00 0.00 48 1009.8
20260502233559 27 214 11.3 22.5 0.00 0.00 0.00 47 1009.8
20260502233328 27 208 12.9 22.5 0.00 0.00 0.00 47 1009.8
20260502232556 27 229 12.9 22.5 0.00 0.00 0.00 46 1009.9
20260502232056 27 226 11.3 20.9 0.00 0.00 0.00 46 1010.0
20260502231557 27 231 11.3 24.1 0.00 0.00 0.00 47 1009.9
20260502231053 27 254 14.5 24.1 0.00 0.00 0.00 47 1009.9
20260502230551 27 232 12.9 24.1 0.00 0.00 0.00 45 1010.1
20260502230050 27 267 12.9 25.7 0.00 0.00 0.00 47 1010.1
20260502225551 27 225 12.9 25.7 0.00 0.00 0.00 47 1010.1
20260502225050 27 220 12.9 22.5 0.00 0.00 0.00 47 1010.2
20260502224549 28 269 11.3 22.5 0.00 0.00 0.00 45 1010.3
20260502224049 28 219 11.3 19.3 0.00 0.00 0.00 44 1010.4
20260502223548 28 218 11.3 20.9 0.00 0.00 0.00 46 1010.5
20260502223047 27 234 12.9 20.9 0.00 0.00 0.00 45 1010.6
20260502222548 27 251 12.9 19.3 0.00 0.00 0.00 47 1010.7
20260502222048 27 231 12.9 24.1 0.00 0.00 0.00 45 1010.8
20260502221549 28 222 11.3 24.1 0.00 0.00 0.00 44 1010.9
20260502221048 28 223 11.3 20.9 0.00 0.00 0.00 46 1010.9
20260502220549 27 227 12.9 24.1 0.00 0.00 0.00 46 1011.0
20260502220049 27 222 12.9 24.1 0.00 0.00 0.00 47 1011.1
20260502215549 28 234 11.3 20.9 0.00 0.00 0.00 47 1011.3
20260502215048 27 244 9.7 20.9 0.00 0.00 0.00 46 1011.4
20260502214818 27 252 9.7 24.1 0.00 0.00 0.00 46 1011.4
20260502214046 27 257 11.3 24.1 0.00 0.00 0.00 46 1011.5
20260502213546 27 236 11.3 22.5 0.00 0.00 0.00 47 1011.6
20260502213046 27 219 9.7 19.3 0.00 0.00 0.00 47 1011.5
20260502212547 27 232 11.3 20.9 0.00 0.00 0.00 48 1011.5
20260502212047 26 232 12.9 20.9 0.00 0.00 0.00 48 1011.6
20260502211547 27 233 11.3 20.9 0.00 0.00 0.00 48 1011.6
20260502211046 27 236 12.9 20.9 0.00 0.00 0.00 50 1011.6
20260502210546 26 232 12.9 20.9 0.00 0.00 0.00 49 1011.7
20260502210046 27 267 11.3 17.7 0.00 0.00 0.00 49 1011.7
20260502205545 27 234 9.7 20.9 0.00 0.00 0.00 48 1011.8
20260502205045 27 262 11.3 20.9 0.00 0.00 0.00 49 1011.8
20260502204545 27 224 9.7 16.1 0.00 0.00 0.00 49 1011.9
20260502204038 27 238 8.0 14.5 0.00 0.00 0.00 50 1012.0
20260502203538 27 226 8.0 14.5 0.00 0.00 0.00 48 1012.0
20260502202810 26 248 8.0 16.1 0.00 0.00 0.00 50 1012.1
20260502202038 26 267 8.0 17.7 0.00 0.00 0.00 52 1012.2
20260502201540 26 265 8.0 17.7 0.00 0.00 0.00 53 1012.5
20260502201308 25 254 6.4 14.5 0.00 0.00 0.00 54 1012.6
20260502200538 25 229 6.4 14.5 0.00 0.00 0.00 54 1012.7
20260502200038 25 219 8.0 14.5 0.00 0.00 0.00 54 1012.8
20260502195538 25 229 6.4 14.5 0.00 0.00 0.00 54 1012.8
20260502195038 25 213 4.8 11.3 0.00 0.00 0.00 55 1012.9
20260502194539 25 209 6.4 16.1 0.00 0.00 0.00 55 1012.9
20260502194039 25 221 8.0 16.1 0.00 0.00 0.00 56 1013.1
20260502193038 24 221 6.4 11.3 0.00 0.00 0.00 57 1013.2
20260502192538 24 232 3.2 9.7 0.00 0.00 0.00 57 1013.2
20260502192309 24 237 3.2 9.7 0.00 0.00 0.00 60 1013.3
20260502191538 23 232 3.2 8.0 0.00 0.00 0.00 60 1013.2
20260502191039 23 232 3.2 8.0 0.00 0.00 0.00 60 1013.4
20260502190539 23 232 3.2 8.0 0.00 0.00 0.00 59 1013.6
20260502190309 23 230 3.2 8.0 0.00 0.00 0.00 61 1013.6
20260502185539 23 229 3.2 9.7 0.00 0.00 0.00 62 1013.7
20260502185309 22 229 4.8 11.3 0.00 0.00 0.00 62 1013.8
20260502184538 22 225 6.4 11.3 0.00 0.00 0.00 64 1013.8
20260502184038 22 228 4.8 9.7 0.00 0.00 0.00 66 1014.0
20260502183538 22 221 3.2 8.0 0.00 0.00 0.00 66 1014.1
20260502183038 21 221 4.8 11.3 0.00 0.00 0.00 68 1014.1
20260502182538 21 221 6.4 12.9 0.00 0.00 0.00 67 1014.3
20260502182039 21 216 4.8 12.9 0.00 0.00 0.00 69 1014.3
20260502181539 21 221 4.8 12.9 0.00 0.00 0.00 70 1014.4
20260502181039 20 241 4.8 9.7 0.00 0.00 0.00 70 1014.3
20260502180538 20 242 4.8 11.3 0.00 0.00 0.00 72 1014.3